Location: B?dimalle
(17.1788°N, 80.5377°E)
Time: 14:51:22
(UTC+00:00)

Explorer 11/Cluster Stage 4 - All Passes

Search period start: 10 February 2026 00:00
Search period end: 20 February 2026 00:00
Orbit: 464 x 1177 km, 28.8° (Epoch: 10 February)

Date Brightness Start Highest point End Pass type
(mag) Time Alt. Az. Time Alt. Az. Time Alt. Az.
10 Feb - 07:41:42 10° S 07:43:57 15° SSE 07:46:10 10° ESE daylight
10 Feb - 09:27:25 10° WSW 09:31:00 77° NNW 09:34:50 10° ENE daylight
10 Feb - 11:15:32 10° WNW 11:18:40 23° N 11:22:09 10° NE daylight
10 Feb - 13:03:39 10° NW 13:06:59 20° N 13:10:47 10° NE visible
10 Feb - 14:50:33 10° NW 14:55:18 35° NNE 15:01:02 10° E visible
10 Feb - 16:37:26 10° WNW 16:43:22 88° SSW 16:50:35 10° ESE night (unlit)
10 Feb - 18:25:44 10° W 18:31:32 30° SSW 18:37:57 10° SSE night (unlit)
11 Feb - 07:17:29 10° SSW 07:19:57 17° SSE 07:22:20 10° ESE daylight
11 Feb - 09:03:28 10° WSW 09:07:03 73° NNW 09:10:45 10° ENE daylight
11 Feb - 10:51:45 10° WNW 10:54:40 21° N 10:57:52 10° NE daylight
11 Feb - 12:39:53 10° NW 12:42:55 18° N 12:46:20 10° NE daylight
11 Feb - 14:26:40 10° NW 14:31:08 34° NNE 14:36:32 10° E visible
11 Feb - 16:13:27 10° WNW 16:19:06 86° SSW 16:26:03 10° ESE night (unlit)
11 Feb - 18:01:43 10° W 18:07:10 28° SSW 18:13:21 10° SSE night (unlit)
12 Feb - 06:53:13 10° SSW 06:55:57 18° SSE 06:58:32 10° ESE daylight
12 Feb - 08:39:28 10° WSW 08:43:06 70° NNW 08:46:42 10° ENE daylight
12 Feb - 10:27:55 10° WNW 10:30:40 20° N 10:33:38 10° NE daylight
12 Feb - 12:16:08 10° NW 12:18:52 17° N 12:21:55 10° NE daylight
12 Feb - 14:02:48 10° NW 14:07:00 33° NNE 14:12:03 10° E visible
12 Feb - 15:49:30 10° WNW 15:54:50 84° SSW 16:01:29 10° ESE visible
12 Feb - 17:37:44 10° W 17:42:51 27° SSW 17:48:42 10° SSE night (unlit)
13 Feb - 06:28:52 10° SSW 06:31:56 20° SSE 06:34:44 10° ESE daylight
13 Feb - 08:15:24 10° WSW 08:19:07 67° NNW 08:22:42 10° ENE daylight
13 Feb - 10:04:02 10° WNW 10:06:41 19° N 10:09:26 10° NE daylight
13 Feb - 11:52:21 10° NW 11:54:50 16° N 11:57:32 10° NE daylight
13 Feb - 13:38:56 10° NW 13:42:53 32° NNE 13:47:36 10° E visible
13 Feb - 15:25:34 10° WNW 15:30:37 82° SSW 15:36:56 10° ESE visible
13 Feb - 17:13:48 10° W 17:18:34 25° SSW 17:24:01 10° SSE night (unlit)
14 Feb - 06:04:28 10° SSW 06:07:53 22° SSE 06:10:57 10° E daylight
14 Feb - 07:51:16 10° WSW 07:55:08 65° NNW 07:58:43 10° ENE daylight
14 Feb - 09:40:07 10° WNW 09:42:41 18° NNW 09:45:18 10° NE daylight
14 Feb - 11:28:33 10° NNW 11:30:48 15° N 11:33:11 10° NE daylight
14 Feb - 13:15:04 10° NW 13:18:47 30° NNE 13:23:10 10° E visible
14 Feb - 15:01:38 10° WNW 15:06:26 79° SSW 15:12:24 10° ESE visible
14 Feb - 16:49:55 10° WSW 16:54:17 23° SSW 16:59:19 10° SSE night (unlit)
15 Feb - 05:40:01 10° SSW 05:43:49 24° SSE 05:47:08 10° E daylight
15 Feb - 07:27:04 10° WSW 07:31:08 63° NNW 07:34:45 10° ENE daylight
15 Feb - 09:16:05 10° WNW 09:18:40 18° NNW 09:21:13 10° NNE daylight
15 Feb - 11:04:42 10° NNW 11:06:46 14° N 11:08:55 10° NE daylight
15 Feb - 12:51:11 10° NW 12:54:42 29° NNE 12:58:48 10° E daylight
15 Feb - 14:37:44 10° WNW 14:42:15 76° SSW 14:47:52 10° ESE visible
15 Feb - 16:26:04 10° WSW 16:30:02 21° SSW 16:34:35 10° SSE night (unlit)
16 Feb - 05:15:30 10° SSW 05:19:43 27° SSE 05:23:19 10° E daylight
16 Feb - 07:02:48 10° WSW 07:07:06 62° NNW 07:10:49 10° ENE daylight
16 Feb - 08:52:01 10° WNW 08:54:38 18° NNW 08:57:11 10° NNE daylight
16 Feb - 10:40:48 10° NNW 10:42:43 14° N 10:44:41 10° NE daylight
16 Feb - 12:27:17 10° NW 12:30:38 28° NNE 12:34:27 10° E daylight
16 Feb - 14:13:50 10° WNW 14:18:06 73° SSW 14:23:22 10° ESE visible
16 Feb - 16:02:16 10° WSW 16:05:49 19° SSW 16:09:50 10° SSE visible
17 Feb - 04:50:57 10° SSW 04:55:35 29° SSE 04:59:29 10° E daylight
17 Feb - 06:38:29 10° WSW 06:43:02 61° NNW 06:46:53 10° ENE daylight
17 Feb - 08:27:51 10° WNW 08:30:36 18° NNW 08:33:11 10° NNE daylight
17 Feb - 10:16:50 10° NNW 10:18:41 13° N 10:20:33 10° NE daylight
17 Feb - 12:03:20 10° NW 12:06:34 27° NNE 12:10:10 10° ENE daylight
17 Feb - 13:49:55 10° WNW 13:53:59 69° SSW 13:58:54 10° ESE visible
17 Feb - 15:38:31 10° WSW 15:41:37 17° SSW 15:45:05 10° SSE visible
18 Feb - 04:26:22 10° SW 04:31:24 32° SSE 04:35:36 10° E daylight
18 Feb - 06:14:05 10° WSW 06:18:56 60° NNW 06:22:57 10° ENE daylight
18 Feb - 08:03:37 10° WNW 08:06:32 19° NNW 08:09:15 10° NNE daylight
18 Feb - 09:52:45 10° NNW 09:54:37 13° N 09:56:29 10° NE daylight
18 Feb - 11:39:22 10° NW 11:42:30 27° NNE 11:45:55 10° ENE daylight
18 Feb - 13:26:00 10° WNW 13:29:52 65° SSW 13:34:29 10° SE visible
18 Feb - 15:14:49 10° WSW 15:17:26 15° SSW 15:20:17 10° S visible
19 Feb - 04:01:43 10° SW 04:07:11 35° SSE 04:11:42 10° E daylight
19 Feb - 05:49:37 10° WSW 05:54:47 60° NNW 05:59:00 10° ENE daylight
19 Feb - 07:39:18 10° WNW 07:42:27 20° NNW 07:45:18 10° NE daylight
19 Feb - 09:28:35 10° NNW 09:30:32 14° N 09:32:29 10° NE daylight
19 Feb - 11:15:20 10° NW 11:18:27 27° NNE 11:21:43 10° ENE daylight
19 Feb - 13:02:04 10° WNW 13:05:47 61° SSW 13:10:05 10° SE visible
19 Feb - 14:51:13 10° SW 14:53:15 13° SSW 14:55:27 10° S visible
